Location: Ocean City
(38.3360°N, 75.0850°W)
Time: 21:24:18
(UTC-05:00)

Explorer 11/Cluster Stage 4 - Pass Details

Date: 14 November 2019
Orbit: 467 x 1259 km, 28.8° (Epoch: 12 December)

Event Time Altitude Azimuth Distance (km) Brightness Sun altitude
Rises 04:14:14 0° 259° (W) 4,181 - -28.7°
Reaches altitude 10° 04:20:34 10° 224° (SW) 3,104 - -27.5°
Maximum altitude 04:21:53 11° 214° (SW) 3,033 - -27.2°
Drops below altitude 10° 04:23:11 10° 204° (SSW) 3,032 - -27.0°
Exits shadow 04:23:33 10° 202° (SSW) 3,045 9.4 -26.9°
Sets 04:28:58 0° 168° (SSE) 3,780 10.3 -25.8°
